Temperature
18 18 18 18 17 17 17 17 17 17 16 16 16 16 16 16 16 15 15 15 15 15 15 15 15 15 15 15 15 15 15 15 14 14 14 14 14 14 14 14 14 14 14
18 18 18 18 17 17 17 17 17 17 16 16 16 16 16 16 15 15 15 15 15 15 15 15 15 15 15 15 15 15 15 14 14 14 14 14 14 14 14 14 14 14 14
18 18 18 18 18 17 17 17 17 17 16 16 16 16 16 16 16 15 15 15 15 15 15 15 15 15 15 15 15 14 15 14 14 14 14 14 14 13 13 13 13 14 14
18 18 18 18 18 18 17 17 17 17 16 16 16 16 16 16 16 15 15 15 15 15 15 15 15 15 15 15 15 14 14 14 14 14 14 14 14 14 13 13 13 13 14
18 18 18 18 18 18 17 17 17 17 16 16 16 16 16 16 16 15 15 15 15 15 15 15 15 15 15 15 14 14 14 14 14 14 14 14 14 14 14 13 13 13 13
18 18 18 18 18 18 17 17 17 17 16 16 16 16 16 16 16 16 15 15 15 15 15 15 15 15 15 15 15 14 14 14 14 14 14 14 14 14 14 14 14 13 13
18 18 18 18 18 18 17 17 17 17 16 16 16 16 16 16 16 16 15 15 15 15 15 15 15 15 15 15 15 15 15 14 15 14 14 14 14 14 14 14 14 13 13
18 18 19 18 18 18 18 17 17 17 16 16 16 16 16 16 16 16 15 15 15 15 15 15 15 15 15 15 15 15 15 15 15 14 14 14 14 14 14 14 14 14 13
19 19 19 18 18 18 18 18 17 17 17 16 16 16 16 16 16 16 16 15 15 15 15 15 15 15 15 15 15 15 14 14 14 14 14 14 14 14 14 14 14 14 13
19 19 19 19 18 18 18 18 17 17 17 17 16 16 16 16 16 16 16 16 15 15 15 15 15 15 15 15 15 15 14 14 14 14 14 14 14 14 14 14 14 14 13
19 19 19 19 18 18 18 18 18 17 17 17 16 16 16 16 16 16 16 16 15 15 15 15 15 15 15 15 15 15 15 14 14 14 14 14 14 14 14 14 13 13 13
19 19 19 19 18 18 18 18 18 17 17 17 17 16 16 16 16 16 16 16 15 15 15 15 15 15 15 15 15 15 15 15 14 14 14 14 14 14 14 14 14 13 13
19 19 19 19 19 18 18 18 18 18 17 17 17 16 16 16 16 16 16 16 16 15 15 15 15 15 15 15 15 15 15 15 14 14 14 14 14 14 14 14 13 13 13
19 19 19 19 19 19 18 18 18 18 17 17 17 16 16 16 16 16 16 16 16 16 15 15 15 15 15 15 15 15 15 14 14 14 14 14 14 14 14 13 13 13 13
19 19 19 19 19 19 19 18 18 18 17 17 17 17 16 16 16 16 16 16 16 16 15 15 15 15 15 15 15 15 14 14 14 14 14 14 14 14 13 13 13 13 13
19 19 19 19 19 19 19 19 18 18 18 17 17 17 16 16 16 16 16 16 16 16 15 15 15 15 15 15 15 15 14 14 14 14 14 13 13 13 13 13 13 13 12
19 19 19 19 19 19 19 19 19 18 18 17 17 17 16 16 16 16 16 16 16 16 15 15 15 15 15 15 15 14 14 14 14 14 14 13 13 13 13 13 13 13 12
20 20 20 20 19 19 19 19 18 18 18 18 17 17 17 17 16 16 16 16 16 15 15 15 15 15 15 15 15 14 14 14 14 14 14 13 13 13 13 13 13 12 12
20 20 20 20 19 19 19 19 18 18 18 18 17 17 17 17 16 16 16 16 15 15 15 15 15 15 15 15 14 14 14 14 14 13 13 13 13 13 13 12 12 12 12
20 20 20 19 19 19 19 18 18 18 18 18 17 17 17 17 16 16 16 15 15 15 15 15 15 15 15 14 14 14 14 14 14 13 13 13 13 12 12 12 12 12 12
20 20 20 19 19 19 18 18 18 18 18 18 17 17 17 16 16 16 16 15 15 15 15 15 15 15 14 14 14 14 14 13 13 13 13 13 12 12 12 12 12 12 11
20 20 19 19 19 18 18 18 18 18 18 17 17 17 17 16 16 16 16 15 15 15 15 15 14 14 14 14 14 13 13 13 13 13 12 12 12 12 12 11 11 11 11
19 19 19 19 18 18 18 18 18 17 17 17 17 17 16 16 16 16 15 15 15 15 14 14 14 14 14 13 13 13 13 13 12 12 12 12 11 11 11 11 11 11 11
19 19 19 18 18 18 18 18 17 17 17 17 16 16 16 16 15 15 15 15 14 14 14 14 14 13 13 13 13 12 12 12 12 12 11 11 11 11 11 11 10 10 10
19 18 18 18 18 17 17 17 17 17 17 16 16 16 16 15 15 15 15 14 14 14 14 13 13 13 13 12 12 12 12 12 11 11 11 11 11 11 10 10 10 10 9
18 18 18 17 17 17 17 17 16 16 16 16 16 16 15 15 15 14 14 14 13 13 13 13 12 12 12 12 11 11 11 11 11 11 11 10 10 10 10 10 9 9 9
Wind_Speed
4 4 5 5 5 5 5 5 5 4 4 3 3 3 2 2 3 5 6 6 6 7 7 5 5 5 4 4 5 5 6 4 3 4 5 5 6 7 6 7 7 10 12
4 5 5 5 5 6 5 5 5 5 4 3 2 2 2 2 2 3 6 7 6 6 6 5 4 4 4 5 4 4 3 2 3 3 3 3 4 5 6 5 6 7 9
7 6 7 6 6 6 6 6 5 5 4 4 3 4 4 3 3 3 3 5 6 6 6 6 5 4 4 4 3 3 4 2 2 3 3 3 1 1 4 5 5 5 5
7 7 8 8 8 7 6 6 5 5 4 4 4 4 3 2 0 0 1 4 6 5 6 6 5 4 3 3 2 2 2 3 2 2 3 2 3 3 1 3 3 5 5
8 9 9 10 8 7 6 6 6 4 4 4 5 5 3 2 1 2 3 3 4 5 5 5 5 4 3 2 2 2 2 2 2 2 2 3 3 2 3 0 2 3 4
8 8 7 7 6 6 6 6 6 5 4 5 4 5 5 4 4 3 2 2 2 3 5 5 4 4 3 2 2 2 2 2 2 2 2 2 2 2 2 2 0 1 3
9 8 8 8 8 7 7 7 7 5 4 5 4 5 5 5 5 3 2 2 1 1 2 3 3 3 3 3 3 2 2 2 2 2 1 2 2 2 3 3 2 1 2
8 9 10 9 9 9 8 8 7 5 5 5 5 4 5 4 3 3 3 2 1 1 1 2 3 3 4 4 4 3 2 2 2 2 2 2 1 2 3 3 3 2 2
8 9 9 9 9 9 8 9 8 6 6 6 5 5 5 4 4 3 3 2 2 1 2 3 3 3 4 4 4 4 3 3 3 2 2 2 2 2 2 2 3 4 1
7 8 8 9 9 8 7 8 8 7 6 6 6 5 5 5 4 4 3 3 2 2 3 3 3 3 4 4 4 3 3 4 3 2 3 3 2 2 2 2 2 2 3
7 7 7 7 7 7 7 7 7 6 6 6 5 5 5 4 4 4 4 3 3 3 3 3 3 3 3 3 3 3 3 3 3 3 3 3 2 2 2 2 2 2 2
6 6 6 6 6 7 7 8 7 7 6 6 6 6 5 5 4 4 4 4 4 3 3 3 3 3 3 3 3 3 3 3 2 2 2 2 2 3 2 2 2 2 2
5 5 6 7 7 8 7 8 7 7 6 6 6 5 5 5 5 4 4 4 4 3 3 3 3 3 3 2 2 2 2 2 2 2 2 1 2 2 1 2 2 2 2
5 6 7 7 7 7 7 8 7 7 7 7 6 6 6 6 5 4 4 4 4 4 4 3 3 3 3 3 2 3 2 2 1 1 1 1 2 2 2 2 2 2 3
5 6 7 7 7 7 7 7 7 7 7 7 7 7 6 5 4 4 4 4 4 4 4 3 3 2 3 3 3 3 3 2 1 0 0 0 1 2 3 2 3 3 2
7 7 7 7 8 8 8 8 8 7 7 8 7 6 5 5 5 5 4 4 4 4 4 3 3 3 2 4 6 5 3 3 2 1 1 1 0 1 1 2 4 5 4
7 8 8 9 9 9 9 9 8 7 8 8 7 6 6 6 6 5 5 5 4 4 4 3 3 3 3 4 6 6 5 3 3 2 1 1 0 1 1 1 1 1 3
7 7 7 7 7 7 7 7 7 8 8 8 7 7 7 6 6 6 6 5 4 4 4 4 4 3 3 4 5 6 4 3 2 3 3 2 2 1 2 1 0 1 1
7 7 7 6 6 7 7 7 7 8 8 8 8 8 8 7 7 7 6 5 4 4 3 3 4 3 3 3 5 5 3 2 2 2 2 3 3 2 3 2 1 2 3
4 4 4 5 5 5 7 8 7 8 8 8 8 7 8 8 8 7 6 4 4 4 4 2 2 3 3 3 5 6 3 2 2 1 1 3 3 3 3 3 3 3 4
3 4 5 5 5 5 7 8 7 7 7 6 6 6 7 7 7 6 5 5 5 4 3 2 1 1 2 3 4 6 4 3 2 2 2 2 3 3 3 3 3 5 3
3 5 5 4 3 5 7 7 6 6 5 6 6 6 6 5 5 6 5 5 5 5 3 2 1 0 1 1 3 4 5 5 3 3 2 2 2 2 2 2 3 4 2
4 4 5 4 3 4 6 7 5 4 6 6 6 5 5 4 5 6 6 4 4 4 3 3 2 1 1 1 2 2 3 4 3 2 2 1 0 1 1 2 2 1 0
3 4 5 5 4 3 4 4 4 5 7 6 5 5 6 5 4 4 5 5 4 4 3 3 2 1 0 1 0 1 1 1 1 0 1 2 3 2 2 2 2 1 1
3 4 5 5 4 4 3 3 4 6 7 6 5 5 5 6 5 4 3 4 3 5 5 4 4 3 2 2 3 3 1 1 2 2 2 2 2 2 2 2 2 2 2
4 5 4 4 3 4 4 3 4 6 7 6 5 4 4 4 5 5 4 4 4 4 5 5 5 3 3 3 4 4 3 4 5 4 2 1 1 1 2 2 2 2 2
Wind_Direction
219 170 159 153 144 137 136 137 132 130 124 106 96 83 59 27 28 37 49 65 84 93 97 97 90 90 93 97 98 96 84 72 74 81 60 40 41 45 36 34 39 40 42
185 169 162 158 162 163 161 151 147 150 149 131 120 113 106 71 41 30 41 49 72 87 98 100 98 96 98 94 92 98 100 69 46 90 87 44 17 23 29 29 37 34 37
192 186 175 174 171 177 176 167 161 155 146 128 103 82 63 46 34 26 26 24 54 77 91 100 104 103 109 119 112 109 112 111 47 61 117 120 150 1 3 20 30 28 32
196 192 184 181 185 190 177 161 156 149 144 138 134 130 127 124 134 32 37 34 49 68 86 97 102 104 105 119 128 115 111 121 109 60 58 96 140 134 47 355 10 24 31
194 195 192 187 188 182 170 158 148 148 146 145 146 133 122 125 101 69 65 48 38 52 75 93 99 100 104 120 118 109 107 117 135 133 111 84 69 87 128 143 338 3 8
192 193 187 173 174 171 161 152 151 156 152 149 147 148 145 136 119 99 86 58 38 36 54 79 89 98 101 112 119 116 114 109 114 120 128 138 138 148 131 143 153 335 329
184 182 179 177 176 173 166 158 158 163 160 157 160 163 158 152 152 150 138 116 74 43 35 65 80 85 95 104 106 101 102 113 117 132 135 133 142 143 137 131 135 26 327
187 188 187 183 182 179 172 166 167 175 171 171 174 167 160 156 160 158 153 153 156 151 78 88 90 88 95 98 93 86 88 91 98 101 110 107 115 127 138 144 139 93 356
191 192 186 185 184 181 179 175 174 181 182 182 172 166 164 163 164 160 152 157 164 137 104 97 88 83 88 91 91 85 79 88 83 82 91 93 86 100 110 125 138 140 137
187 189 188 188 187 183 177 174 178 184 183 177 176 175 176 176 169 157 163 169 157 119 118 110 99 91 87 87 87 86 80 85 72 80 85 77 72 83 90 110 104 116 146
190 190 188 185 177 168 169 174 177 175 174 175 175 168 172 169 162 170 182 170 155 147 143 134 120 111 101 94 97 96 98 93 73 67 86 77 81 85 77 84 88 85 107
187 186 178 169 168 172 176 177 178 179 182 175 170 174 167 161 168 185 189 166 162 159 154 138 132 126 116 110 119 119 114 116 109 92 89 74 85 80 75 86 90 95 97
174 173 172 176 180 181 181 181 181 183 177 167 167 169 169 171 184 192 187 171 164 158 149 145 153 154 144 138 141 139 133 133 141 138 130 127 111 98 91 98 101 99 91
178 175 182 187 185 184 183 182 183 181 172 166 169 177 185 185 190 188 181 178 168 165 168 168 172 168 155 155 155 146 141 137 133 136 152 161 164 176 152 130 134 120 104
187 187 189 191 186 184 184 182 182 180 174 169 177 190 186 174 171 173 176 170 165 172 167 160 165 158 161 175 169 165 159 155 146 122 43 208 182 187 170 157 162 141 124
201 198 194 192 192 192 190 185 186 181 170 174 185 186 172 167 171 175 169 160 161 158 153 169 172 177 194 184 175 162 164 168 169 191 270 305 307 220 190 175 161 156 155
204 201 200 200 199 197 191 190 188 174 171 178 182 179 174 176 180 174 164 168 172 164 162 178 176 197 219 196 182 173 158 169 184 198 219 256 276 101 95 80 102 171 184
208 205 200 201 199 193 187 182 171 169 174 178 182 182 176 178 173 168 175 180 168 167 176 186 191 203 225 198 184 175 155 168 195 206 207 211 238 185 156 141 70 302 288
207 206 199 192 186 186 179 166 168 171 175 183 187 186 179 175 172 178 185 181 168 173 179 182 184 194 233 202 180 160 155 179 218 220 192 189 215 226 164 151 205 295 301
200 187 175 163 172 181 166 161 168 173 188 193 190 182 176 177 181 186 183 172 167 177 170 172 182 194 222 202 182 164 159 183 222 246 237 217 216 225 184 178 193 248 271
168 153 146 157 176 164 153 160 167 189 196 180 170 170 176 180 180 174 167 160 156 148 151 159 176 194 220 206 184 169 169 188 199 221 250 255 235 233 215 186 203 242 254
129 137 140 149 147 148 152 159 182 194 168 155 156 162 165 169 164 157 155 150 148 146 152 147 143 288 274 198 194 184 186 178 182 216 235 240 240 243 246 228 253 264 287
137 142 144 138 129 142 152 164 188 162 142 140 146 150 145 146 147 150 149 144 148 151 159 156 180 259 306 283 211 195 189 185 189 210 205 193 75 347 335 320 311 308 245
129 133 132 132 139 146 150 166 157 140 135 139 144 142 139 134 130 138 147 150 158 163 167 166 181 207 257 289 278 211 161 160 166 142 79 72 62 53 19 4 355 352 265
120 125 132 142 149 140 136 129 128 132 133 136 137 138 139 141 134 127 136 152 164 171 169 182 179 172 201 240 182 156 153 154 144 110 70 53 38 20 5 355 343 342 343
122 121 122 129 130 126 125 122 129 137 138 136 140 143 141 140 138 135 107 71 94 112 130 139 145 153 148 121 124 129 123 117 118 103 85 62 33 356 340 337 334 332 320
Height
1547 1549 1550 1552 1554 1556 1557 1558 1559 1560 1561 1562 1562 1562 1562 1562 1563 1563 1563 1563 1563 1563 1563 1563 1563 1564 1564 1564 1564 1565 1565 1565 1565 1565 1565 1565 1566 1565 1565 1564 1564 1563 1563
1545 1547 1550 1552 1553 1555 1557 1558 1559 1561 1562 1562 1563 1563 1563 1563 1564 1564 1564 1564 1564 1564 1564 1564 1565 1565 1565 1565 1566 1566 1566 1566 1566 1567 1566 1567 1569 1567 1567 1566 1566 1565 1565
1543 1546 1548 1550 1553 1555 1556 1558 1559 1561 1562 1563 1563 1564 1564 1564 1564 1565 1565 1565 1565 1565 1565 1566 1566 1566 1566 1567 1567 1567 1567 1567 1568 1568 1569 1568 1568 1569 1569 1568 1568 1567 1566
1541 1544 1546 1549 1551 1554 1556 1558 1559 1561 1562 1563 1564 1564 1564 1565 1565 1565 1566 1566 1566 1566 1567 1567 1567 1567 1567 1568 1568 1568 1569 1569 1569 1569 1569 1570 1569 1569 1570 1570 1569 1568 1568
1539 1541 1544 1547 1550 1553 1555 1557 1559 1560 1562 1563 1564 1565 1565 1565 1566 1566 1567 1567 1567 1568 1568 1568 1568 1568 1569 1569 1569 1569 1569 1569 1569 1570 1570 1570 1570 1570 1570 1569 1569 1569 1569
1536 1540 1543 1546 1549 1552 1554 1556 1558 1560 1562 1563 1564 1565 1565 1566 1566 1567 1567 1568 1568 1569 1569 1569 1569 1570 1570 1570 1570 1570 1570 1570 1570 1570 1570 1570 1570 1570 1570 1569 1569 1569 1569
1534 1537 1540 1544 1547 1550 1553 1555 1557 1559 1561 1563 1564 1565 1566 1566 1567 1567 1568 1568 1569 1569 1570 1570 1570 1570 1571 1571 1571 1570 1570 1570 1570 1571 1571 1571 1570 1570 1570 1570 1569 1569 1569
1532 1535 1538 1541 1545 1548 1551 1554 1556 1558 1560 1562 1564 1565 1566 1566 1567 1568 1568 1569 1569 1570 1570 1571 1571 1571 1571 1571 1571 1571 1571 1571 1571 1571 1571 1571 1570 1570 1570 1570 1570 1569 1569
1530 1533 1536 1539 1543 1546 1549 1552 1555 1558 1560 1561 1563 1564 1565 1566 1567 1568 1569 1569 1570 1571 1571 1571 1571 1571 1571 1572 1572 1571 1571 1571 1571 1571 1571 1571 1571 1571 1571 1570 1570 1570 1569
1529 1532 1535 1538 1541 1544 1548 1551 1554 1556 1558 1561 1562 1564 1565 1566 1567 1568 1569 1570 1570 1571 1571 1572 1572 1572 1572 1572 1572 1572 1571 1571 1571 1571 1571 1571 1571 1571 1571 1570 1570 1570 1569
1527 1530 1533 1536 1539 1543 1547 1549 1552 1555 1557 1559 1561 1563 1564 1566 1567 1568 1569 1570 1570 1571 1571 1572 1572 1572 1572 1572 1572 1572 1572 1571 1571 1571 1571 1571 1571 1571 1570 1570 1570 1569 1569
1527 1529 1532 1535 1538 1541 1544 1547 1550 1553 1555 1557 1559 1561 1563 1564 1566 1567 1568 1569 1570 1571 1571 1572 1572 1572 1572 1572 1572 1572 1572 1571 1571 1571 1571 1571 1571 1570 1570 1570 1569 1569 1568
1526 1528 1530 1533 1536 1539 1543 1545 1548 1551 1554 1556 1558 1560 1561 1563 1564 1566 1567 1569 1570 1570 1571 1571 1572 1572 1572 1572 1572 1572 1572 1571 1571 1571 1571 1571 1570 1570 1570 1569 1569 1568 1568
1524 1526 1529 1531 1534 1537 1541 1543 1546 1549 1552 1554 1556 1558 1559 1561 1563 1565 1566 1567 1569 1570 1570 1571 1571 1571 1572 1572 1572 1572 1571 1571 1571 1571 1571 1570 1570 1570 1569 1569 1569 1568 1568
1523 1525 1527 1529 1532 1535 1538 1541 1544 1547 1550 1552 1554 1556 1558 1559 1561 1563 1565 1566 1567 1568 1569 1570 1570 1570 1571 1571 1571 1571 1571 1571 1571 1571 1570 1570 1570 1569 1569 1569 1568 1568 1567
1521 1523 1525 1528 1530 1533 1535 1539 1542 1545 1547 1549 1551 1553 1555 1557 1559 1561 1563 1564 1566 1567 1568 1568 1569 1569 1570 1570 1570 1570 1570 1570 1570 1570 1570 1570 1569 1569 1568 1568 1567 1567 1566
1519 1521 1523 1525 1528 1530 1533 1536 1539 1542 1544 1547 1549 1551 1553 1555 1557 1559 1560 1562 1563 1565 1566 1567 1567 1568 1568 1569 1569 1569 1569 1569 1569 1569 1569 1569 1568 1568 1567 1567 1566 1566 1565
1517 1519 1521 1523 1525 1528 1531 1534 1536 1539 1542 1544 1546 1549 1551 1553 1555 1556 1558 1560 1561 1563 1564 1565 1566 1566 1567 1567 1568 1568 1568 1568 1568 1568 1568 1567 1567 1567 1566 1566 1565 1564 1563
1515 1517 1519 1521 1523 1526 1528 1531 1534 1536 1539 1541 1543 1546 1548 1550 1552 1554 1555 1557 1559 1560 1561 1562 1563 1564 1565 1565 1566 1566 1566 1566 1566 1566 1566 1566 1565 1565 1565 1564 1563 1562 1562
1513 1515 1517 1519 1521 1523 1526 1528 1531 1533 1536 1538 1541 1543 1545 1547 1549 1551 1553 1554 1556 1558 1559 1560 1561 1562 1562 1563 1563 1564 1563 1563 1563 1563 1563 1563 1563 1563 1562 1561 1560 1559 1559
1511 1513 1515 1517 1519 1521 1524 1526 1528 1531 1533 1536 1538 1541 1543 1545 1547 1548 1550 1551 1553 1555 1556 1557 1558 1559 1560 1560 1561 1561 1561 1560 1561 1560 1561 1561 1560 1560 1559 1558 1557 1557 1556
1510 1512 1514 1515 1518 1520 1522 1524 1526 1529 1531 1534 1536 1538 1540 1542 1544 1545 1547 1548 1550 1551 1553 1554 1555 1556 1557 1557 1558 1558 1558 1558 1558 1557 1558 1557 1557 1557 1556 1555 1554 1554 1553
1509 1511 1513 1515 1517 1519 1521 1522 1525 1527 1529 1531 1533 1535 1538 1539 1541 1542 1544 1545 1547 1548 1549 1551 1552 1553 1554 1554 1554 1555 1555 1554 1554 1554 1554 1554 1554 1553 1553 1552 1551 1550 1549
1508 1510 1512 1514 1515 1517 1519 1522 1524 1526 1527 1529 1531 1533 1535 1537 1539 1540 1542 1543 1544 1546 1547 1548 1549 1550 1551 1551 1552 1552 1552 1552 1552 1552 1551 1551 1551 1550 1550 1549 1548 1547 1545
1508 1510 1511 1513 1515 1516 1519 1521 1522 1524 1526 1528 1530 1532 1533 1535 1536 1538 1540 1541 1542 1544 1545 1546 1547 1547 1548 1549 1549 1549 1549 1549 1549 1549 1549 1548 1548 1547 1546 1545 1544 1543 1542
1508 1509 1511 1512 1514 1516 1518 1519 1521 1523 1525 1526 1528 1530 1531 1533 1534 1536 1538 1539 1540 1542 1543 1544 1544 1545 1546 1546 1547 1547 1547 1547 1547 1546 1545 1545 1545 1544 1543 1542 1541 1540 1538